Location: Gradaro
(45.0833°N, 10.8833°E)
Time: 05:28:00
(UTC+00:00)

Cosmos 1833 Rocket - Pass Details

Date: 29 November 2020
Orbit: 834 x 838 km, 71.0° (Epoch: 27 January)

Event Time Altitude Azimuth Distance (km) Brightness Sun altitude
Exits shadow 05:07:18 - 342° (NNW) 3,157 5.4 -14.7°
Reaches altitude 10° 05:09:21 10° 350° (N) 2,457 4.9 -14.3°
Maximum altitude 05:14:21 32° 53° (NE) 1,414 4.2 -13.5°
Drops below altitude 10° 05:19:18 10° 115° (ESE) 2,443 6.6 -12.6°
Sets 05:22:00 0° 126° (SE) 3,372 7.4 -12.2°
